User: anonymous   Login
Location: Lac de la Montange Noire
(46.1952°N, 74.2701°W)
Time: 23:34:51
(UTC-04:00)
Language:

Iridium 42 - Orbit

View from above orbital plane
View from above orbital plane
View from above satellite
View from above satellite

Ground track
Ground track

The orbit data is extracted from the following two-line orbital elements,

1 25077U 97077A   16126.26621604  .00000196  00000-0  62591-4 0  9997
2 25077  86.4008 192.4564 0002348  97.3552 262.7911 14.34474361963719
Epoch (UTC): 05 May 2016 06:23:21
Eccentricity: 0.0002348
inclination: 86.4008°
perigee height: 775 km
apogee height: 778 km
right ascension of ascending node: 192.4564°
argument of perigee: 97.3552°
revolutions per day: 14.34474361
mean anomaly at epoch: 262.7911°
orbit number at epoch: 96371

The dashed part of the orbit path shows where the satellite is in the earth's shadow,  

DLR